STARLINK-1595, 46159

Orbit data source: Space-Track

STARLINK-1595, 46159 is a payload satellite owned by SpaceX/Seattle (US) in LEO that was launched on Tue, 18 Aug 2020 UTC via an FALCON 9 launch vehicle from the Air Force Eastern Test Range (AFETR). Payload-class satellites include a variety of spacecraft equipped with specific instruments for various scientific and technological missions. These include communications satellites like Starlink; space stations such as the ISS; scientific satellites like the Hubble; Earth observation satellites from companies like Planet Labs, Umbra, and HawkEye 360; GPS; miniature CubeSats for education and research; and military/defense satellites.

Not visible in the next 10 days
Identifier
46159, 2020-057AU
Orbit
LEO
Country
Flag of USUS
Related business
Manufacturer
SpaceX/Seattle
Mission
Partially operational Commercial Communications
Bus & Motor
STARLINK, Unknown motor
Mass
260 kg wet, ~248 kg dry
Launch date (UTC)
2020-08-18 (6 years ago)
Launch vehicle
FALCON 9
Launch site
Air Force Eastern Test Range (AFETR)
Object type
Payload
Rocket body
Debris
Shape & HBR
Box + 1 Pan, 10.1 m
Radar Cross Section
13.562 m², Large (>1 m²)

Expand to show TLE details & history
Last TLE update: 8 hours ago

TLE from 8 hours ago
0 STARLINK-1595
1 46159U 20057AU  26238.10952676  .00650021  21552-3  93527-3 0  9997
2 46159  53.0262 176.2696 0003483 115.2762 244.8630 16.04831694334250
Epoch: 2026-08-26T02:37Z
TLE epoch observation values (Epoch: 2026-08-26T02:37:43.112Z)
Latitude
-0.00003°
Longitude
162.4727°
Altitude
262.956 km
Speed
7.75 km/s
True Right ascension
11h 45m 04s
True Declination
0° 00' 00"
Sunlit
Object was in daylight at epoch
Visualization orbit readout
Latitude
Unknown
Longitude
Unknown
Altitude
Unknown
Speed
Unknown
Apparent Right ascension
Unknown
Apparent Declination
Unknown
Sunlit
N/A
Visualization observer readout
Local Sidereal Time
01:44:32
Azimuth
Unknown
Elevation
Unknown
Doppler factor
Unknown
Orbital elements
Apogee altitude
263.659 km
Perigee altitude
259.034 km
Semi-major axis
6,639.483 km
Eccentricity
0.00035
Inclination
53.0262°
RAAN
176.2696°
Arg. of periapsis
115.2762°
True anomaly
244.82687°
Mean anomaly
244.863°
Eccentric anomaly
244.84494°
Mean motion
4.01182 °/min
Orbital period
89.73 mins
BSTAR
0.00093527
Loading maneuver chart data...
Computing Atmospheric mass density...

Documentation

Showing up to 5 results
|